Regional Weather Roundup
Issued by NWS New Orleans/Baton Rouge, LA

Home | Current Version | Previous Version | Text Only | Print | Product List | Glossary On
Versions: 1 2 3 4 5 6 7 8 9 10 11 12 13 14 15 16 17 18 19 20 21 22 23 24 25 26 27 28 29 30 31 32 33 34 35 36 37 38 39 40 41 42 43 44 45 46 47 48 49 50
460
ASUS44 KLIX 240201
RWRLIX
NEW ORLEANS REGIONAL WEATHER ROUNDUP
NATIONAL WEATHER SERVICE NEW ORLEANS LA
900 PM CDT WED JUL 23 2014

NOTE: "FAIR" INDICATES FEW OR NO CLOUDS BELOW 12,000 FEET WITH NO
      SIGNIFICANT WEATHER AND/OR OBSTRUCTIONS TO VISIBILITY.
      SKY/WX - SKY CONDITION AND SIGNIFICANT WEATHER.
      TMP - AIR TEMPERATURE.     DP    - DEWPOINT TEMPERATURE.
      RH  - RELATIVE HUMIDITY.   PRES  - PRESSURE.
      HI  - HEAT INDEX.          WCI   - WIND CHILL INDEX.

*  THESE STATIONS ARE NOT NWS OR FAA STATIONS AND ARE NOT UNDER
   NWS QUALITY CONTROL.

LAZ038-040-048-061>063-065>067-069-240300-
SOUTHEAST LOUISIANA

CITY           SKY/WX    TMP DP  RH WIND       PRES   REMARKS
N.O. AUDUBON     N/A     81  73  76 MISG        N/A
N.O. INTL ARPT MOCLDY    80  71  74 CALM      30.02R
N.O. LAKEFRONT PTCLDY    80  72  76 SE3       30.02R
N.O. DOWNTOWN*   N/A     81  68  65 CALM      30.02R
SLIDELL        PTCLDY    77  72  84 CALM      30.02R
BATON ROUGE    CLEAR     80  73  79 CALM      30.00S
BOOTHVILLE       N/A     79  72  79 S6        30.01R
BELLE CHASSE   MOCLDY    77  72  84 CALM      30.01R
BOGALUSA*        N/A     79  74  85 CALM      30.03R
GALLIANO*      NOT AVBL
NEW ROADS*       N/A     78  74  87 CALM      29.99S
GONZALES*        N/A     77  77 100 CALM      30.01R
HAMMOND*       PTCLDY    79  72  78 CALM      30.03R
HOUMA*         MOCLDY    78  71  80 E3        30.01R
PORT FOURCHON* CLEAR     81  73  78 SW3       30.03R

$$

MSZ070-080>082-240300-
SOUTHERN MISSISSIPPI

CITY           SKY/WX    TMP DP  RH WIND       PRES   REMARKS
MCCOMB         PTCLDY    78  73  84 SE3       30.02R
GULFPORT       PTCLDY    79  72  79 CALM      30.01R
BILOXI         PTCLDY    78  72  82 CALM      30.02R
PASCAGOULA     CLEAR     75  73  93 CALM      30.02R
STENNIS ARPT*  CLEAR    N/A N/A N/A CALM      30.02R

$$

COASTAL OBSERVATIONS
LAKE AND NEARSHORE STATIONS

STATION/POSITION TIME  TEMP    WIND        PRES    WAVE
                       AIR SEA DIR/SP/G            HT/PER
                 (UTC) (F)     (DEG/KT/KT) (MB)    (FT/S)
WAVELAND YACHT   0100   81     180/  3/  4 1015.5
GRAND ISLE       0100   80 85  190/  2/  4 1016.3
SOUTHWEST PASS   0100   82 85  210/  5/  8 1016.3
NEW CANAL        0100   81 82   CALM  /  2 1016.6
SHELL BEACH      0100   80 81  120/  3/  5 1015.9

OFFSHORE STATIONS

STATION/POSITION TIME  TEMP    WIND        PRES    WAVE
                       AIR SEA DIR/SP/G            HT/PER
                 (UTC) (F)     (DEG/KT/KT) (MB)    (FT/S)

$$




USA.gov is the U.S. government's official web portal to all federal, state and local government web resources and services.